ALTO2: Altus Lake, OK

Data processed at Fri Dec 08 2017 23:47


All information presented herein is the property of the government of the United States of America and may be revised or deleted at any time without prior notice.
Dissemination of this information without the expressed written consent of the Public Affairs Office, Tulsa District U.S. Army Corps of Engineers is strictly prohibited.
These data are gathered electronically and, as presented, have not undergone any form of quality control. These data are not guaranteed to be valid or correct.
Go to home page.
Go to station list.

Upstream stations:

Downstream station:
Previous Day
Next Day
Current Day
    
SHEF ID:       ALTO2     Altus Lake
STATION TYPE:  RESERVOIR
Normal Pool:  Bottom =  1517.50, Top =  1559.00

               PRECIP  RIV-FLOW ELEVATION   STORAGE    INFLOW   RELEASE   VOLTAGE  BAT-LOAD
                   in       cfs        ft     ac-ft       cfs       cfs      volt      volt
              Ccp-Rev   Ccp-Rev   Ccp-Rev   Ccp-Rev  Regi-Rev  Regi-Rev   Ccp-Rev   Ccp-Rev
(US/Central)
12/06 00:00      0.00      ----   1550.20     82700         0         0     12.41      ----
12/06 01:00      0.00      ----   1550.20     82700       112         0     12.33      ----
12/06 02:00      0.00      ----   1550.20     82700       112         0     12.33      ----
12/06 03:00      0.00      ----   1550.21     82747       112         0     12.33      ----
12/06 04:00      0.00      ----   1550.21     82747       112         0     12.33      ----
12/06 05:00      0.00      ----   1550.22     82793       141         0     12.33      ----
12/06 06:00      0.00      ----   1550.22     82793        29         0     12.25      ----
12/06 07:00      0.00      ----   1550.21     82747        29         0     12.25      ----
12/06 08:00      0.00      ----   1550.20     82700        29         0     12.25      ----
12/06 09:00      0.00      ----   1550.22     82793        29         0     12.25      ----
12/06 10:00      0.00      ----   1550.22     82793         0         0     12.25      ----
12/06 11:00      0.00      ----   1550.21     82747        87         0     13.29      ----
12/06 12:00      0.00      ----   1550.21     82747        87         0     13.21      ----
12/06 13:00      0.00      ----   1550.22     82793        87         0     13.92      ----
12/06 14:00      0.00      ----   1550.22     82793        87         0     14.08      ----
12/06 15:00      0.00      ----   1550.23     82839        87         0     13.13      ----
12/06 16:00      0.00      ----   1550.22     82793         0         0     13.60      ----
12/06 17:00      0.00      ----   1550.23     82839         0         0     12.73      ----
12/06 18:00      0.00      ----   1550.23     82839         0         0     12.49      ----
12/06 19:00      0.00      ----   1550.22     82793         0         0     12.49      ----
12/06 20:00      0.00      ----   1550.21     82747         0         0     12.41      ----
12/06 21:00      0.00      ----   1550.21     82747         0         0     12.41      ----
12/06 22:00      0.00      ----   1550.22     82793         0         0     12.41      ----
12/06 23:00      0.00      ----   1550.23     82839         0         0     12.41      ----